Location: Ar Ranvel
(48.3000°N, 4.8833°W)
Time: 04:46:18
(UTC+00:00)

Cosmos 2322 Rocket - Pass Details

Date: 26 October 2021
Orbit: 832 x 851 km, 71.0° (Epoch: 01 December)

Event Time Altitude Azimuth Distance (km) Brightness Sun altitude
Rises 17:33:01 0° 177° (S) 3,363 5.5 -4.5°
Reaches altitude 10° 17:35:38 10° 169° (SSE) 2,434 4.6 -4.9°
Maximum altitude 17:40:36 34° 106° (ESE) 1,349 2.9 -5.7°
Drops below altitude 10° 17:45:35 10° 43° (NE) 2,455 4.1 -6.5°
Sets 17:48:14 0° 35° (NE) 3,396 4.9 -6.9°
